User: anonymous   Login
Location: Le Petit-Vavre
(46.5081°N, 1.5239°E)
Time: 13:30:43
(UTC+00:00)
Language:

FLOCK 4P 2 - Orbit

View from above orbital plane
View from above orbital plane
View from above satellite
View from above satellite

Ground track
Ground track

The orbit data is extracted from the following two-line orbital elements,

1 44813U 19081K   21266.74561553  .00001894  00000-0  85847-4 0  9990
2 44813  97.4405 329.6241 0013058  74.5250 285.7427 15.22010989101282
Epoch (UTC): 23 September 2021 17:53:41
Eccentricity: 0.0013058
inclination: 97.4405°
perigee height: 491 km
apogee height: 509 km
right ascension of ascending node: 329.6241°
argument of perigee: 74.5250°
revolutions per day: 15.22010989
mean anomaly at epoch: 285.7427°
orbit number at epoch: 10128

The dashed part of the orbit path shows where the satellite is in the earth's shadow,  

DLR